Starlink 30279

operational
NORAD ID: 57885 Int'l Des: 2023-144 Owner: SPXS Country: US Constellation: starlink
LEOCIRCULAR

Starlink 30279について

説明を読み込み中...

リアルタイム位置

3D地球を読み込み中...

次回通過

高度履歴

Altitude vs Time

uPlot chart will show altitude changes over time

軌道要素

1 57885U 23144X 26035.18472143 -.00003558 00000-0 -24834-3 0 9990
2 57885 43.0008 109.2713 0001230 178.3158 181.7689 15.02553604132515
Epoch: Feb 4, 2026 • Age: 16 hours

現在のステータス

高度 560.8 km
速度 7.59 km/s
衛星直下点 38.29°N, 139.69°E
打ち上げ日 Sep 16, 2023
運用期間 2.3 years
タイプ internet

技術仕様

分類 Payload
質量 730.00 kg
乾燥質量 700.00 kg
総質量 730.00 kg
長さ 0.30 m
直径 4.10 m
スパン 29.00 m
形状 Box + pan
製造者 SPXS
バスタイプ Starlink V2M
フェーズステータス In Orbit
所有者/国 SPXS/US

大規模コンステレーション

Loading constellations...